Time,TemperatureF,DewpointF,PressureIn,WindDirection,WindDirectionDegrees,WindSpeedMPH,WindSpeedGustMPH,Humidity,HourlyPrecipIn,Conditions,Clouds,dailyrainin,SoftwareType,DateUTC
2013-03-12 00:14:00,42.7,43.0,29.78,ENE,75,3.0,6.0,99,0.07,,,0.44,weatherlink.com 1.10,2013-03-12 04:14:00,
2013-03-12 00:29:00,42.9,43.0,29.79,ENE,71,5.0,7.0,99,0.07,,,0.46,weatherlink.com 1.10,2013-03-12 04:29:00,
2013-03-12 00:44:00,43.1,43.0,29.79,ENE,61,4.0,7.0,99,0.06,,,0.47,weatherlink.com 1.10,2013-03-12 04:44:00,
2013-03-12 00:59:00,43.2,43.0,29.78,East,83,5.0,8.0,99,0.06,,,0.49,weatherlink.com 1.10,2013-03-12 04:59:00,
2013-03-12 01:15:00,43.3,43.0,29.78,ENE,61,4.0,8.0,99,0.07,,,0.02,weatherlink.com 1.10,2013-03-12 05:15:00,
2013-03-12 01:30:00,43.3,43.0,29.77,NNE,24,3.0,7.0,99,0.07,,,0.04,weatherlink.com 1.10,2013-03-12 05:30:00,
2013-03-12 01:45:00,43.4,43.0,29.77,ENE,67,4.0,6.0,99,0.08,,,0.06,weatherlink.com 1.10,2013-03-12 05:45:00,
2013-03-12 02:00:00,43.5,43.0,29.75,ENE,64,3.0,8.0,99,0.08,,,0.08,weatherlink.com 1.10,2013-03-12 06:00:00,
2013-03-12 02:15:00,43.4,43.0,29.75,ENE,65,5.0,9.0,99,0.07,,,0.09,weatherlink.com 1.10,2013-03-12 06:15:00,
2013-03-12 02:30:00,43.3,43.0,29.74,NNE,29,4.0,9.0,99,0.07,,,0.11,weatherlink.com 1.10,2013-03-12 06:30:00,
2013-03-12 02:45:00,43.2,43.0,29.73,ENE,59,4.0,8.0,99,0.06,,,0.12,weatherlink.com 1.10,2013-03-12 06:45:00,
2013-03-12 03:00:00,43.2,43.0,29.74,ENE,71,3.0,7.0,99,0.06,,,0.14,weatherlink.com 1.10,2013-03-12 07:00:00,
2013-03-12 03:15:00,43.1,43.0,29.73,ENE,74,0.0,4.0,99,0.06,,,0.15,weatherlink.com 1.10,2013-03-12 07:15:00,
2013-03-12 03:30:00,43.0,43.0,29.74,ESE,108,2.0,2.0,99,0.06,,,0.17,weatherlink.com 1.10,2013-03-12 07:30:00,
2013-03-12 03:45:00,41.8,42.0,29.74,ESE,117,0.0,10.0,99,0.07,,,0.19,weatherlink.com 1.10,2013-03-12 07:45:00,
2013-03-12 04:00:00,40.3,40.0,29.74,SE,142,3.0,8.0,99,0.07,,,0.21,weatherlink.com 1.10,2013-03-12 08:00:00,
2013-03-12 04:15:00,39.1,39.0,29.73,SW,236,4.0,7.0,99,0.08,,,0.23,weatherlink.com 1.10,2013-03-12 08:15:00,
2013-03-12 04:30:00,38.6,38.0,29.73,SE,143,1.0,7.0,99,0.09,,,0.26,weatherlink.com 1.10,2013-03-12 08:30:00,
2013-03-12 04:45:00,37.8,38.0,29.74,South,178,1.0,12.0,99,0.09,,,0.28,weatherlink.com 1.10,2013-03-12 08:45:00,
2013-03-12 05:00:00,37.3,37.0,29.73,SSW,205,3.0,10.0,99,0.09,,,0.30,weatherlink.com 1.10,2013-03-12 09:00:00,
2013-03-12 05:15:00,36.8,37.0,29.73,SW,218,6.0,8.0,99,0.07,,,0.31,weatherlink.com 1.10,2013-03-12 09:15:00,
2013-03-12 05:30:00,36.2,36.0,29.74,SSE,153,6.0,9.0,99,0.07,,,0.33,weatherlink.com 1.10,2013-03-12 09:30:00,
2013-03-12 05:45:00,35.3,35.0,29.74,SE,128,3.0,10.0,99,0.06,,,0.34,weatherlink.com 1.10,2013-03-12 09:45:00,
2013-03-12 06:00:00,34.6,34.0,29.74,South,190,3.0,10.0,99,0.05,,,0.35,weatherlink.com 1.10,2013-03-12 10:00:00,
2013-03-12 06:15:00,33.7,34.0,29.75,WSW,257,2.0,13.0,99,0.04,,,0.35,weatherlink.com 1.10,2013-03-12 10:15:00,
2013-03-12 06:30:00,33.2,33.0,29.76,South,171,5.0,13.0,99,0.02,,,0.35,weatherlink.com 1.10,2013-03-12 10:30:00,
2013-03-12 06:45:00,32.7,32.0,29.75,SSW,200,6.0,9.0,98,0.01,,,0.35,weatherlink.com 1.10,2013-03-12 10:45:00,
2013-03-12 07:00:00,32.3,32.0,29.76,South,182,6.0,8.0,98,0.00,,,0.35,weatherlink.com 1.10,2013-03-12 11:00:00,
2013-03-12 07:15:00,32.0,32.0,29.76,SSW,200,7.0,12.0,98,0.00,,,0.35,weatherlink.com 1.10,2013-03-12 11:15:00,
2013-03-12 07:30:00,31.4,31.0,29.75,SSW,197,4.0,10.0,98,0.00,,,0.35,weatherlink.com 1.10,2013-03-12 11:30:00,
2013-03-12 07:46:00,31.0,31.0,29.75,SSE,160,3.0,9.0,98,0.00,,,0.35,weatherlink.com 1.10,2013-03-12 11:46:00,
2013-03-12 08:01:00,30.9,30.0,29.76,SW,221,5.0,12.0,98,0.00,,,0.35,weatherlink.com 1.10,2013-03-12 12:01:00,
2013-03-12 08:16:00,31.0,31.0,29.77,SSW,193,2.0,12.0,99,0.00,,,0.35,weatherlink.com 1.10,2013-03-12 12:16:00,
2013-03-12 08:31:00,30.6,30.0,29.78,SW,229,0.0,0.0,98,0.00,,,0.35,weatherlink.com 1.10,2013-03-12 12:31:00,
2013-03-12 08:46:00,30.0,30.0,29.80,SW,229,0.0,0.0,98,0.00,,,0.35,weatherlink.com 1.10,2013-03-12 12:46:00,
2013-03-12 09:01:00,29.7,29.0,29.80,SW,229,0.0,0.0,98,0.00,,,0.35,weatherlink.com 1.10,2013-03-12 13:01:00,
2013-03-12 09:46:00,28.3,28.0,29.80,SW,229,0.0,0.0,98,0.00,,,0.35,weatherlink.com 1.10,2013-03-12 13:46:00,
2013-03-12 10:16:00,28.6,28.0,29.80,SW,229,0.0,0.0,98,0.00,,,0.35,weatherlink.com 1.10,2013-03-12 14:16:00,
2013-03-12 10:31:00,28.5,28.0,29.81,SW,229,0.0,0.0,98,0.00,,,0.35,weatherlink.com 1.10,2013-03-12 14:31:00,
2013-03-12 11:01:00,28.3,28.0,29.81,SW,229,0.0,0.0,98,0.00,,,0.35,weatherlink.com 1.10,2013-03-12 15:01:00,
2013-03-12 11:16:00,28.2,28.0,29.81,SW,229,0.0,0.0,98,0.00,,,0.35,weatherlink.com 1.10,2013-03-12 15:16:00,
2013-03-12 11:31:00,28.5,28.0,29.81,SW,229,0.0,0.0,98,0.00,,,0.35,weatherlink.com 1.10,2013-03-12 15:31:00,
2013-03-12 11:46:00,28.5,28.0,29.81,SW,229,0.0,0.0,98,0.00,,,0.35,weatherlink.com 1.10,2013-03-12 15:46:00,
2013-03-12 12:01:00,28.6,28.0,29.82,SW,229,0.0,0.0,98,0.00,,,0.35,weatherlink.com 1.10,2013-03-12 16:01:00,
2013-03-12 12:16:00,28.5,28.0,29.82,SW,229,0.0,0.0,98,0.00,,,0.35,weatherlink.com 1.10,2013-03-12 16:16:00,
2013-03-12 12:31:00,28.8,28.0,29.82,SW,229,0.0,0.0,98,0.01,,,0.36,weatherlink.com 1.10,2013-03-12 16:31:00,
2013-03-12 12:46:00,28.6,28.0,29.83,SW,229,0.0,0.0,98,0.01,,,0.36,weatherlink.com 1.10,2013-03-12 16:46:00,
2013-03-12 13:01:00,28.3,28.0,29.84,SW,229,0.0,0.0,98,0.01,,,0.36,weatherlink.com 1.10,2013-03-12 17:01:00,
2013-03-12 13:16:00,28.0,28.0,29.84,SW,229,0.0,0.0,98,0.01,,,0.36,weatherlink.com 1.10,2013-03-12 17:16:00,
2013-03-12 13:31:00,28.0,27.0,29.84,SW,229,0.0,0.0,97,0.00,,,0.36,weatherlink.com 1.10,2013-03-12 17:31:00,
2013-03-12 13:46:00,27.7,27.0,29.85,SW,229,0.0,0.0,97,0.00,,,0.36,weatherlink.com 1.10,2013-03-12 17:46:00,
2013-03-12 14:01:00,28.0,27.0,29.84,SW,229,0.0,0.0,97,0.00,,,0.36,weatherlink.com 1.10,2013-03-12 18:01:00,
2013-03-12 14:16:00,28.0,27.0,29.84,SW,229,0.0,0.0,97,0.00,,,0.36,weatherlink.com 1.10,2013-03-12 18:16:00,
2013-03-12 14:31:00,27.8,27.0,29.84,SW,229,0.0,0.0,97,0.00,,,0.36,weatherlink.com 1.10,2013-03-12 18:31:00,
2013-03-12 14:46:00,27.6,27.0,29.85,SW,229,0.0,0.0,97,0.00,,,0.36,weatherlink.com 1.10,2013-03-12 18:46:00,
2013-03-12 15:01:00,27.7,27.0,29.85,SW,229,0.0,0.0,97,0.00,,,0.36,weatherlink.com 1.10,2013-03-12 19:01:00,
2013-03-12 15:16:00,27.8,27.0,29.84,SW,229,0.0,0.0,97,0.00,,,0.36,weatherlink.com 1.10,2013-03-12 19:16:00,
2013-03-12 15:31:00,28.0,27.0,29.85,SW,229,0.0,0.0,97,0.00,,,0.36,weatherlink.com 1.10,2013-03-12 19:31:00,
2013-03-12 15:46:00,28.1,27.0,29.85,SW,229,0.0,0.0,97,0.00,,,0.36,weatherlink.com 1.10,2013-03-12 19:46:00,
2013-03-12 16:01:00,28.9,28.0,29.85,SW,229,0.0,0.0,98,0.00,,,0.36,weatherlink.com 1.10,2013-03-12 20:01:00,
2013-03-12 16:16:00,29.2,29.0,29.85,SW,229,0.0,0.0,98,0.00,,,0.36,weatherlink.com 1.10,2013-03-12 20:16:00,
2013-03-12 16:31:00,29.6,29.0,29.85,SW,229,0.0,0.0,98,0.00,,,0.36,weatherlink.com 1.10,2013-03-12 20:31:00,
2013-03-12 16:46:00,29.6,29.0,29.85,WNW,303,0.0,0.0,98,0.00,,,0.36,weatherlink.com 1.10,2013-03-12 20:46:00,
2013-03-12 17:01:00,29.8,29.0,29.84,WNW,292,0.0,0.0,98,0.00,,,0.36,weatherlink.com 1.10,2013-03-12 21:01:00,
2013-03-12 17:16:00,29.9,29.0,29.85,WNW,291,0.0,0.0,98,0.00,,,0.36,weatherlink.com 1.10,2013-03-12 21:16:00,
2013-03-12 17:31:00,30.1,30.0,29.86,WNW,303,0.0,0.0,98,0.00,,,0.36,weatherlink.com 1.10,2013-03-12 21:31:00,
2013-03-12 17:46:00,29.9,29.0,29.85,WNW,283,0.0,0.0,97,0.00,,,0.36,weatherlink.com 1.10,2013-03-12 21:46:00,
2013-03-12 18:01:00,29.9,29.0,29.86,NW,306,0.0,0.0,97,0.00,,,0.36,weatherlink.com 1.10,2013-03-12 22:01:00,
2013-03-12 18:16:00,29.7,29.0,29.86,WNW,298,0.0,0.0,96,0.00,,,0.36,weatherlink.com 1.10,2013-03-12 22:16:00,
2013-03-12 18:31:00,29.6,29.0,29.87,WNW,288,0.0,0.0,96,0.00,,,0.36,weatherlink.com 1.10,2013-03-12 22:31:00,
2013-03-12 18:46:00,29.1,28.0,29.88,NW,326,0.0,0.0,96,0.00,,,0.36,weatherlink.com 1.10,2013-03-12 22:46:00,
2013-03-12 19:01:00,28.8,28.0,29.88,NNW,334,0.0,0.0,96,0.00,,,0.36,weatherlink.com 1.10,2013-03-12 23:01:00,
2013-03-12 19:16:00,28.5,28.0,29.90,NW,304,0.0,0.0,96,0.00,,,0.36,weatherlink.com 1.10,2013-03-12 23:16:00,
2013-03-12 19:31:00,28.1,27.0,29.91,NW,311,0.0,0.0,96,0.00,,,0.36,weatherlink.com 1.10,2013-03-12 23:31:00,
2013-03-12 19:47:00,27.9,27.0,29.91,NNE,24,0.0,0.0,95,0.00,,,0.36,weatherlink.com 1.10,2013-03-12 23:47:00,
2013-03-12 20:02:00,27.6,27.0,29.92,NW,313,0.0,0.0,96,0.00,,,0.36,weatherlink.com 1.10,2013-03-13 00:02:00,
2013-03-12 20:17:00,27.5,27.0,29.92,WNW,287,0.0,0.0,96,0.00,,,0.36,weatherlink.com 1.10,2013-03-13 00:17:00,
2013-03-12 20:32:00,27.4,26.0,29.93,North,5,0.0,0.0,96,0.00,,,0.36,weatherlink.com 1.10,2013-03-13 00:32:00,
2013-03-12 20:47:00,27.2,26.0,29.94,NW,304,0.0,0.0,95,0.00,,,0.36,weatherlink.com 1.10,2013-03-13 00:47:00,
2013-03-12 21:02:00,27.0,26.0,29.93,West,280,0.0,0.0,95,0.00,,,0.36,weatherlink.com 1.10,2013-03-13 01:02:00,
2013-03-12 21:17:00,27.0,26.0,29.95,WNW,285,0.0,0.0,96,0.00,,,0.36,weatherlink.com 1.10,2013-03-13 01:17:00,
2013-03-12 21:32:00,27.0,26.0,29.96,NNW,327,0.0,0.0,96,0.00,,,0.36,weatherlink.com 1.10,2013-03-13 01:32:00,
2013-03-12 21:47:00,26.8,26.0,29.97,North,355,0.0,0.0,95,0.00,,,0.36,weatherlink.com 1.10,2013-03-13 01:47:00,
2013-03-12 22:02:00,26.8,26.0,29.98,NW,311,0.0,0.0,95,0.00,,,0.36,weatherlink.com 1.10,2013-03-13 02:02:00,
2013-03-12 22:17:00,26.9,25.0,29.98,NW,322,0.0,0.0,94,0.00,,,0.36,weatherlink.com 1.10,2013-03-13 02:17:00,
2013-03-12 22:32:00,26.9,25.0,29.98,NW,311,0.0,0.0,94,0.00,,,0.36,weatherlink.com 1.10,2013-03-13 02:32:00,
2013-03-12 22:47:00,27.0,26.0,29.98,WNW,288,0.0,0.0,94,0.00,,,0.36,weatherlink.com 1.10,2013-03-13 02:47:00,
2013-03-12 23:02:00,27.0,26.0,29.99,WNW,294,0.0,0.0,94,0.00,,,0.36,weatherlink.com 1.10,2013-03-13 03:02:00,
2013-03-12 23:17:00,26.9,25.0,29.99,WNW,298,0.0,0.0,94,0.00,,,0.36,weatherlink.com 1.10,2013-03-13 03:17:00,
2013-03-12 23:32:00,26.9,26.0,29.98,WNW,298,0.0,0.0,95,0.00,,,0.36,weatherlink.com 1.10,2013-03-13 03:32:00,
2013-03-12 23:47:00,26.8,26.0,29.98,NW,320,0.0,0.0,95,0.00,,,0.36,weatherlink.com 1.10,2013-03-13 03:47:00,